EDT,Max TemperatureF,Mean TemperatureF,Min TemperatureF,Max Dew PointF,MeanDew PointF,Min DewpointF,Max Humidity, Mean Humidity, Min Humidity, Max Sea Level PressureIn, Mean Sea Level PressureIn, Min Sea Level PressureIn, Max VisibilityMiles, Mean VisibilityMiles, Min VisibilityMiles, Max Wind SpeedMPH, Mean Wind SpeedMPH, Max Gust SpeedMPH,PrecipitationIn, CloudCover, Events, WindDirDegrees
2014-5-1,60,54,48,58,52,46,100,94,84,30.14,29.82,29.67,10,4,0,17,10,30,1.40,8,Fog-Rain,185
2014-5-2,68,57,48,53,45,37,100,72,36,29.81,29.71,29.68,10,7,0,18,6,28,0.03,4,Fog-Rain,249
2014-5-3,66,52,39,45,39,36,97,63,33,29.88,29.81,29.75,10,9,2,18,4,25,0.00,1,,207
2014-5-4,64,57,50,46,38,32,86,52,30,29.73,29.62,29.54,10,10,8,23,12,37,0.01,3,Rain,268
2014-5-5,66,55,44,42,39,36,87,55,37,29.85,29.74,29.62,10,10,10,20,12,25,0.00,6,,302
2014-5-6,64,53,43,40,34,28,82,50,28,30.02,29.88,29.83,10,10,10,12,3,18,0.00,3,Rain,327
2014-5-7,64,50,37,37,33,28,89,50,30,30.19,30.14,30.04,10,10,10,21,5,25,0.00,0,,239
2014-5-8,66,54,43,54,46,37,96,76,45,30.19,30.16,30.10,10,10,10,13,6,,0.00,3,,220
2014-5-9,62,56,51,56,50,40,96,82,51,30.23,30.18,30.09,10,10,10,12,3,18,0.00,8,,141
2014-5-10,75,66,59,61,58,55,96,81,61,30.08,29.91,29.80,10,9,2,18,14,28,0.00,5,Rain,198
2014-5-11,78,66,52,59,47,37,90,53,25,30.03,29.92,29.80,10,10,10,18,9,29,0.06,2,Rain,256
2014-5-12,79,64,48,55,46,36,86,54,22,30.11,30.06,30.02,10,10,10,21,6,28,0.00,0,,227
2014-5-13,63,53,45,56,41,39,83,66,51,30.32,30.24,30.05,10,10,10,18,11,25,0.00,3,,42
2014-5-14,64,54,44,54,47,41,93,80,58,30.33,30.31,30.28,10,10,10,14,4,18,0.00,5,,130
2014-5-15,73,64,55,63,58,54,93,81,70,30.30,30.27,30.22,10,10,6,20,7,31,0.00,7,,161
2014-5-16,69,64,60,61,59,57,93,85,70,30.20,30.08,29.99,10,10,6,22,14,33,0.02,7,Rain,159
2014-5-17,73,64,50,62,56,42,97,80,36,30.05,29.93,29.86,10,8,2,28,15,38,0.59,5,Rain,200
2014-5-18,68,55,46,47,43,38,89,62,47,30.09,30.05,30.01,10,10,10,10,4,,0.00,3,,61
2014-5-19,68,57,48,47,39,33,86,53,29,30.09,30.04,30.00,10,10,10,14,6,25,0.02,4,Rain,329
2014-5-20,72,60,46,48,45,40,94,64,34,30.01,29.97,29.95,10,10,10,13,5,23,0.02,3,Rain,195
2014-5-21,70,56,41,53,47,41,100,79,49,29.99,29.96,29.94,10,9,1,14,4,,0.00,1,,150
2014-5-22,62,57,53,54,52,50,94,87,69,29.94,29.89,29.87,10,9,3,13,4,,0.26,7,Rain,126
2014-5-23,66,60,53,55,52,48,100,80,56,29.95,29.90,29.87,10,10,10,10,3,,0.00,7,Rain,98
2014-5-24,66,59,52,50,48,45,89,72,51,30.06,29.99,29.91,10,10,10,15,7,22,0.00,6,Rain,24
2014-5-25,66,56,45,54,50,44,100,84,60,30.08,30.05,30.02,10,9,1,15,4,,0.00,5,,176
2014-5-26,77,64,53,57,54,50,96,73,40,30.05,29.93,29.83,10,10,10,14,8,,0.01,4,Rain,230
2014-5-27,80,66,52,59,54,50,93,73,45,29.89,29.85,29.81,10,10,7,16,8,,0.00,4,,25
2014-5-28,52,49,46,50,47,42,96,89,82,30.18,30.03,29.86,10,9,4,17,11,25,0.02,8,Rain,30
2014-5-29,64,52,39,46,42,36,97,72,35,30.21,30.19,30.16,10,10,8,12,5,18,0.00,1,,26
2014-5-30,66,50,37,48,41,36,97,78,45,30.17,30.09,30.02,10,7,2,14,2,,0.08,1,Rain,166
2014-5-31,64,56,48,52,47,37,97,80,38,30.28,30.12,30.03,10,10,6,20,5,28,0.03,5,Rain,31